Darstellungsparameter: Aktuell verwendete Einstellungen:
Skalierung der Graphiken ... ?
xyx+y,   Skalierungsfaktor:      Skalierung: Modus: x, Faktor: 1
Darstellungszeitraum ... ?
Vom - - bis: - -   Zeitraum: 27.08.2022 - 27.08.2022
Min/Max/Avg-Anzeige ... ?
Zeige MMA aktuell
Zeige MMA Monat
Zeige MMA alles
Zeige --A aktuell
Zeige --A Monat
Zeige --A alles
Keine MMA-Anzeige
MMA:
Average (ber die Originaldaten)
MMA-Basis: 27.08.2022 - 27.08.2022
Quicknavigation für Darstellung... ?
Tage:      1T, 2T, 3T, 5T -1T -2T -3T -5T +1T +2T +3T +5T
Wochen: 1W, 2W, 3W -1W -2W -3W +1W +2W +3W
Monate: 1M, 3M, 6M -1M -3M -6M +1M +3M +6M
Jahre:    1J, 3J, 5J, 10J -1J -3J -5J -10J +1J +3J +5J +10J
Nutze für die Darstellung ... ?
Originaldaten oder Mittelwerte auf ...
Stundenbasis Tagesbasis Wochenbasis
Monatsbasis Jahresbasis      Datenbasis: Original-Daten
Darstellen als:
Statistik (Auto) Statistik J:M      Darstellung:
Zur Graphik,    zurück zur Übersicht aller Sensoren.
 
Tabellarische Datenbersicht: ?
 
Sensor: Nr:Datum:Temp:Abs-Feuchte:Windchill:Wind:
Aussen-T/F 1 27-08-2022 00:00:00 19.8 C 14.35 g/m*3 19.8 C 6.4 km/h
2 27-08-2022 00:05:00 19.8 C 14.35 g/m*3 19.8 C 1.6 km/h
3 27-08-2022 00:10:00 19.9 C 14.26 g/m*3 19.9 C 6.4 km/h
4 27-08-2022 00:15:00 19.9 C 14.26 g/m*3 19.9 C 1.6 km/h
5 27-08-2022 00:20:00 19.9 C 14.26 g/m*3 19.9 C 11.3 km/h
6 27-08-2022 00:25:00 20 C 14.34 g/m*3 20 C 11.3 km/h
7 27-08-2022 00:30:00 20 C 14.34 g/m*3 20 C 4.8 km/h
8 27-08-2022 00:35:00 20.1 C 14.43 g/m*3 20.1 C 8.1 km/h
9 27-08-2022 00:40:00 20.1 C 14.25 g/m*3 20.1 C 6.4 km/h
10 27-08-2022 00:45:00 20.1 C 14.43 g/m*3 20.1 C 9.7 km/h
11 27-08-2022 00:50:00 20.1 C 14.43 g/m*3 20.1 C 6.4 km/h
12 27-08-2022 00:55:00 20.1 C 14.25 g/m*3 20.1 C 4.8 km/h
13 27-08-2022 01:00:00 20.1 C 14.43 g/m*3 20.1 C 3.2 km/h
14 27-08-2022 01:05:00 20.1 C 14.43 g/m*3 20.1 C 4.8 km/h
15 27-08-2022 01:10:00 20.1 C 14.25 g/m*3 20.1 C 6.4 km/h
16 27-08-2022 01:15:00 20.1 C 14.25 g/m*3 20.1 C 1.6 km/h
17 27-08-2022 01:20:00 20.1 C 14.25 g/m*3 20.1 C 0 km/h
18 27-08-2022 01:25:00 20 C 14.17 g/m*3 20 C 4.8 km/h
19 27-08-2022 01:30:00 20 C 14.17 g/m*3 20 C 0 km/h
20 27-08-2022 01:35:00 20 C 14.17 g/m*3 20 C 1.6 km/h
21 27-08-2022 01:40:00 20 C 14.17 g/m*3 20 C 6.4 km/h
22 27-08-2022 01:45:00 19.9 C 14.09 g/m*3 19.9 C 3.2 km/h
23 27-08-2022 01:50:00 19.9 C 14.09 g/m*3 19.9 C 6.4 km/h
24 27-08-2022 01:55:00 19.9 C 14.09 g/m*3 19.9 C 0 km/h
25 27-08-2022 02:00:00 19.9 C 14.09 g/m*3 19.9 C 3.2 km/h
Sensor: Nr:Datum:Temp:Abs-Feuchte:Windchill:Wind:
Aussen-T/F 26 27-08-2022 02:05:00 19.9 C 14.09 g/m*3 19.9 C 6.4 km/h
27 27-08-2022 02:10:00 19.9 C 14.09 g/m*3 19.9 C 3.2 km/h
28 27-08-2022 02:15:00 19.9 C 14.09 g/m*3 19.9 C 4.8 km/h
29 27-08-2022 02:20:00 19.9 C 14.09 g/m*3 19.9 C 1.6 km/h
30 27-08-2022 02:25:00 19.9 C 14.09 g/m*3 19.9 C 8.1 km/h
31 27-08-2022 02:30:00 19.8 C 14.01 g/m*3 19.8 C 6.4 km/h
32 27-08-2022 02:35:00 19.8 C 14.01 g/m*3 19.8 C 4.8 km/h
33 27-08-2022 02:40:00 19.8 C 14.01 g/m*3 19.8 C 8.1 km/h
34 27-08-2022 02:45:00 19.8 C 14.01 g/m*3 19.8 C 6.4 km/h
35 27-08-2022 02:50:00 19.8 C 14.18 g/m*3 19.8 C 3.2 km/h
36 27-08-2022 02:55:00 19.8 C 14.18 g/m*3 19.8 C 6.4 km/h
37 27-08-2022 03:00:00 19.8 C 14.18 g/m*3 19.8 C 3.2 km/h
38 27-08-2022 03:05:00 19.8 C 14.18 g/m*3 19.8 C 6.4 km/h
39 27-08-2022 03:10:00 19.7 C 14.09 g/m*3 19.7 C 9.7 km/h
40 27-08-2022 03:15:00 19.7 C 14.09 g/m*3 19.7 C 8.1 km/h
41 27-08-2022 03:20:00 19.7 C 14.09 g/m*3 19.7 C 3.2 km/h
42 27-08-2022 03:25:00 19.7 C 14.09 g/m*3 19.7 C 4.8 km/h
43 27-08-2022 03:30:00 19.7 C 14.09 g/m*3 19.7 C 1.6 km/h
44 27-08-2022 03:35:00 19.6 C 14.01 g/m*3 19.6 C 3.2 km/h
45 27-08-2022 03:40:00 19.6 C 14.01 g/m*3 19.6 C 1.6 km/h
46 27-08-2022 03:45:00 19.6 C 14.18 g/m*3 19.6 C 1.6 km/h
47 27-08-2022 03:50:00 19.6 C 14.18 g/m*3 19.6 C 1.6 km/h
48 27-08-2022 03:55:00 19.5 C 14.27 g/m*3 19.5 C 8.1 km/h
49 27-08-2022 04:00:00 19.5 C 14.27 g/m*3 19.5 C 4.8 km/h
50 27-08-2022 04:05:00 19.4 C 14.35 g/m*3 19.4 C 3.2 km/h
Sensor: Nr:Datum:Temp:Abs-Feuchte:Windchill:Wind:
Aussen-T/F 51 27-08-2022 04:10:00 19.3 C 14.26 g/m*3 19.3 C 1.6 km/h
52 27-08-2022 04:15:00 19.3 C 14.26 g/m*3 19.3 C 1.6 km/h
53 27-08-2022 04:20:00 19.3 C 14.26 g/m*3 19.3 C 3.2 km/h
54 27-08-2022 04:25:00 19.2 C 14.18 g/m*3 19.2 C 3.2 km/h
55 27-08-2022 04:30:00 19.2 C 14.18 g/m*3 19.2 C 3.2 km/h
56 27-08-2022 04:35:00 19.1 C 14.1 g/m*3 19.1 C 8.1 km/h
57 27-08-2022 04:40:00 19.1 C 14.26 g/m*3 19.1 C 4.8 km/h
58 27-08-2022 04:45:00 19.1 C 14.26 g/m*3 19.1 C 1.6 km/h
59 27-08-2022 04:50:00 19.1 C 14.1 g/m*3 19.1 C 6.4 km/h
60 27-08-2022 04:55:00 19.1 C 14.1 g/m*3 19.1 C 8.1 km/h
61 27-08-2022 05:00:00 19 C 14.18 g/m*3 19 C 1.6 km/h
62 27-08-2022 05:05:00 19 C 14.01 g/m*3 19 C 11.3 km/h
63 27-08-2022 05:10:00 19 C 14.01 g/m*3 19 C 3.2 km/h
64 27-08-2022 05:15:00 18.9 C 13.93 g/m*3 18.9 C 9.7 km/h
65 27-08-2022 05:20:00 18.9 C 14.09 g/m*3 18.9 C 11.3 km/h
66 27-08-2022 05:25:00 18.9 C 14.09 g/m*3 18.9 C 8.1 km/h
67 27-08-2022 05:30:00 18.9 C 14.09 g/m*3 18.9 C 4.8 km/h
68 27-08-2022 05:35:00 18.9 C 14.09 g/m*3 18.9 C 6.4 km/h
69 27-08-2022 05:40:00 18.9 C 14.09 g/m*3 18.9 C 4.8 km/h
70 27-08-2022 05:45:00 18.8 C 14.01 g/m*3 18.8 C 4.8 km/h
71 27-08-2022 05:50:00 18.8 C 14.01 g/m*3 18.8 C 4.8 km/h
72 27-08-2022 05:55:00 18.8 C 14.01 g/m*3 18.8 C 6.4 km/h
73 27-08-2022 06:00:00 18.8 C 14.01 g/m*3 18.8 C 6.4 km/h
74 27-08-2022 06:05:00 18.8 C 14.01 g/m*3 18.8 C 6.4 km/h
75 27-08-2022 06:10:00 18.7 C 13.93 g/m*3 18.7 C 4.8 km/h
Sensor: Nr:Datum:Temp:Abs-Feuchte:Windchill:Wind:
Aussen-T/F 76 27-08-2022 06:15:00 18.7 C 13.93 g/m*3 18.7 C 8.1 km/h
77 27-08-2022 06:20:00 18.7 C 13.93 g/m*3 18.7 C 4.8 km/h
78 27-08-2022 06:25:00 18.7 C 13.93 g/m*3 18.7 C 9.7 km/h
79 27-08-2022 06:30:00 18.6 C 13.85 g/m*3 18.6 C 6.4 km/h
80 27-08-2022 06:35:00 18.6 C 14.01 g/m*3 18.6 C 6.4 km/h
81 27-08-2022 06:40:00 18.6 C 14.01 g/m*3 18.6 C 9.7 km/h
82 27-08-2022 06:45:00 18.5 C 13.92 g/m*3 18.5 C 4.8 km/h
83 27-08-2022 06:50:00 18.4 C 13.84 g/m*3 18.4 C 8.1 km/h
84 27-08-2022 06:55:00 18.4 C 13.84 g/m*3 18.4 C 6.4 km/h
85 27-08-2022 07:00:00 18.4 C 13.84 g/m*3 18.4 C 3.2 km/h
86 27-08-2022 07:05:00 18.4 C 14 g/m*3 18.4 C 8.1 km/h
87 27-08-2022 07:10:00 18.3 C 13.92 g/m*3 18.3 C 8.1 km/h
88 27-08-2022 07:15:00 18.3 C 13.92 g/m*3 18.3 C 4.8 km/h
89 27-08-2022 07:20:00 18.3 C 13.92 g/m*3 18.3 C 6.4 km/h
90 27-08-2022 07:25:00 18.3 C 13.92 g/m*3 18.3 C 6.4 km/h
91 27-08-2022 07:30:00 18.3 C 13.92 g/m*3 18.3 C 9.7 km/h
92 27-08-2022 07:35:00 18.3 C 13.92 g/m*3 18.3 C 8.1 km/h
93 27-08-2022 07:40:00 18.3 C 13.92 g/m*3 18.3 C 3.2 km/h
94 27-08-2022 07:45:00 18.3 C 13.92 g/m*3 18.3 C 8.1 km/h
95 27-08-2022 07:50:00 18.3 C 13.92 g/m*3 18.3 C 6.4 km/h
96 27-08-2022 07:55:00 18.3 C 13.92 g/m*3 18.3 C 6.4 km/h
97 27-08-2022 08:00:00 18.3 C 13.92 g/m*3 18.3 C 6.4 km/h
98 27-08-2022 08:05:00 18.2 C 13.83 g/m*3 18.2 C 6.4 km/h
99 27-08-2022 08:10:00 18.2 C 13.99 g/m*3 18.2 C 8.1 km/h
100 27-08-2022 08:15:00 18.2 C 13.99 g/m*3 18.2 C 6.4 km/h
Sensor: Nr:Datum:Temp:Abs-Feuchte:Windchill:Wind:
Aussen-T/F 101 27-08-2022 08:20:00 18.1 C 13.91 g/m*3 18.1 C 4.8 km/h
102 27-08-2022 08:25:00 18.1 C 13.91 g/m*3 18.1 C 4.8 km/h
103 27-08-2022 08:30:00 18.1 C 13.91 g/m*3 18.1 C 3.2 km/h
104 27-08-2022 08:35:00 18.1 C 13.91 g/m*3 18.1 C 3.2 km/h
105 27-08-2022 08:40:00 18.1 C 13.75 g/m*3 18.1 C 8.1 km/h
106 27-08-2022 08:45:00 18.1 C 13.75 g/m*3 18.1 C 3.2 km/h
107 27-08-2022 08:50:00 18.1 C 13.75 g/m*3 18.1 C 4.8 km/h
108 27-08-2022 08:55:00 18.1 C 13.75 g/m*3 18.1 C 4.8 km/h
109 27-08-2022 09:00:00 18.1 C 13.75 g/m*3 18.1 C 4.8 km/h
110 27-08-2022 09:05:00 18.1 C 13.75 g/m*3 18.1 C 8.1 km/h
111 27-08-2022 09:10:00 18.2 C 13.83 g/m*3 18.2 C 6.4 km/h
112 27-08-2022 09:15:00 18.2 C 13.83 g/m*3 18.2 C 6.4 km/h
113 27-08-2022 09:20:00 18.2 C 13.83 g/m*3 18.2 C 6.4 km/h
114 27-08-2022 09:25:00 18.2 C 13.68 g/m*3 18.2 C 4.8 km/h
115 27-08-2022 09:30:00 18.2 C 13.68 g/m*3 18.2 C 4.8 km/h
116 27-08-2022 09:35:00 18.3 C 13.76 g/m*3 18.3 C 6.4 km/h
117 27-08-2022 09:40:00 18.3 C 13.76 g/m*3 18.3 C 8.1 km/h
118 27-08-2022 09:45:00 18.3 C 13.76 g/m*3 18.3 C 6.4 km/h
119 27-08-2022 09:50:00 18.3 C 13.76 g/m*3 18.3 C 1.6 km/h
120 27-08-2022 09:55:00 18.3 C 13.76 g/m*3 18.3 C 3.2 km/h
121 27-08-2022 10:00:00 18.3 C 13.6 g/m*3 18.3 C 8.1 km/h
122 27-08-2022 10:05:00 18.4 C 13.68 g/m*3 18.4 C 9.7 km/h
123 27-08-2022 10:10:00 18.4 C 13.68 g/m*3 18.4 C 8.1 km/h
124 27-08-2022 10:15:00 18.4 C 13.68 g/m*3 18.4 C 1.6 km/h
125 27-08-2022 10:20:00 18.4 C 13.68 g/m*3 18.4 C 8.1 km/h
Sensor: Nr:Datum:Temp:Abs-Feuchte:Windchill:Wind:
Aussen-T/F 126 27-08-2022 10:25:00 18.4 C 13.68 g/m*3 18.4 C 8.1 km/h
127 27-08-2022 10:30:00 18.4 C 13.68 g/m*3 18.4 C 3.2 km/h
128 27-08-2022 10:35:00 18.4 C 13.68 g/m*3 18.4 C 8.1 km/h
129 27-08-2022 10:40:00 18.4 C 13.68 g/m*3 18.4 C 9.7 km/h
130 27-08-2022 10:45:00 18.4 C 13.68 g/m*3 18.4 C 11.3 km/h
131 27-08-2022 10:50:00 18.4 C 13.68 g/m*3 18.4 C 6.4 km/h
132 27-08-2022 10:55:00 18.4 C 13.68 g/m*3 18.4 C 6.4 km/h
133 27-08-2022 11:00:00 18.4 C 13.68 g/m*3 18.4 C 6.4 km/h
134 27-08-2022 11:05:00 18.5 C 13.77 g/m*3 18.5 C 4.8 km/h
135 27-08-2022 11:10:00 18.4 C 13.68 g/m*3 18.4 C 8.1 km/h
136 27-08-2022 11:15:00 18.4 C 13.53 g/m*3 18.4 C 8.1 km/h
137 27-08-2022 11:20:00 18.4 C 13.68 g/m*3 18.4 C 4.8 km/h
138 27-08-2022 11:25:00 18.4 C 13.68 g/m*3 18.4 C 8.1 km/h
139 27-08-2022 11:30:00 18.4 C 13.68 g/m*3 18.4 C 8.1 km/h
140 27-08-2022 11:35:00 18.4 C 13.68 g/m*3 18.4 C 8.1 km/h
141 27-08-2022 11:40:00 18.4 C 13.68 g/m*3 18.4 C 6.4 km/h
142 27-08-2022 11:45:00 18.4 C 13.68 g/m*3 18.4 C 8.1 km/h
143 27-08-2022 11:50:00 18.4 C 13.68 g/m*3 18.4 C 6.4 km/h
144 27-08-2022 11:55:00 18.3 C 13.6 g/m*3 18.3 C 8.1 km/h
145 27-08-2022 12:00:00 18.3 C 13.6 g/m*3 18.3 C 12.9 km/h
146 27-08-2022 12:05:00 18.3 C 13.6 g/m*3 18.3 C 6.4 km/h
147 27-08-2022 12:10:00 18.3 C 13.6 g/m*3 18.3 C 8.1 km/h
148 27-08-2022 12:15:00 18.3 C 13.6 g/m*3 18.3 C 8.1 km/h
149 27-08-2022 12:20:00 18.3 C 13.6 g/m*3 18.3 C 8.1 km/h
150 27-08-2022 12:25:00 18.3 C 13.6 g/m*3 18.3 C 9.7 km/h
Sensor: Nr:Datum:Temp:Abs-Feuchte:Windchill:Wind:
Aussen-T/F 151 27-08-2022 12:30:00 18.3 C 13.6 g/m*3 18.3 C 6.4 km/h
152 27-08-2022 12:35:00 18.3 C 13.6 g/m*3 18.3 C 8.1 km/h
153 27-08-2022 12:40:00 18.4 C 13.68 g/m*3 18.4 C 4.8 km/h
154 27-08-2022 12:45:00 18.4 C 13.68 g/m*3 18.4 C 9.7 km/h
155 27-08-2022 12:50:00 18.4 C 13.68 g/m*3 18.4 C 9.7 km/h
156 27-08-2022 12:55:00 18.3 C 13.6 g/m*3 18.3 C 9.7 km/h
157 27-08-2022 13:00:00 18.3 C 13.6 g/m*3 18.3 C 11.3 km/h
158 27-08-2022 13:05:00 18.3 C 13.6 g/m*3 18.3 C 9.7 km/h
159 27-08-2022 13:10:00 18.3 C 13.6 g/m*3 18.3 C 8.1 km/h
160 27-08-2022 13:15:00 18.3 C 13.6 g/m*3 18.3 C 12.9 km/h
161 27-08-2022 13:20:00 18.3 C 13.6 g/m*3 18.3 C 11.3 km/h
162 27-08-2022 13:25:00 18.3 C 13.6 g/m*3 18.3 C 8.1 km/h
163 27-08-2022 13:30:00 18.3 C 13.6 g/m*3 18.3 C 11.3 km/h
164 27-08-2022 13:35:00 18.2 C 13.52 g/m*3 18.2 C 11.3 km/h
165 27-08-2022 13:40:00 18.2 C 13.52 g/m*3 18.2 C 11.3 km/h
166 27-08-2022 13:45:00 18.2 C 13.52 g/m*3 18.2 C 11.3 km/h
167 27-08-2022 13:50:00 18.2 C 13.52 g/m*3 18.2 C 6.4 km/h
168 27-08-2022 13:55:00 18.2 C 13.52 g/m*3 18.2 C 11.3 km/h
169 27-08-2022 14:00:00 18.2 C 13.52 g/m*3 18.2 C 8.1 km/h
170 27-08-2022 14:05:00 18.3 C 13.6 g/m*3 18.3 C 9.7 km/h
171 27-08-2022 14:10:00 18.3 C 13.6 g/m*3 18.3 C 9.7 km/h
172 27-08-2022 14:15:00 18.3 C 13.6 g/m*3 18.3 C 8.1 km/h
173 27-08-2022 14:20:00 18.4 C 13.68 g/m*3 18.4 C 11.3 km/h
174 27-08-2022 14:25:00 18.4 C 13.68 g/m*3 18.4 C 9.7 km/h
175 27-08-2022 14:30:00 18.4 C 13.53 g/m*3 18.4 C 11.3 km/h
Sensor: Nr:Datum:Temp:Abs-Feuchte:Windchill:Wind:
Aussen-T/F 176 27-08-2022 14:35:00 18.4 C 13.68 g/m*3 18.4 C 11.3 km/h
177 27-08-2022 14:40:00 18.4 C 13.53 g/m*3 18.4 C 4.8 km/h
178 27-08-2022 14:45:00 18.4 C 13.68 g/m*3 18.4 C 11.3 km/h
179 27-08-2022 14:50:00 18.4 C 13.53 g/m*3 18.4 C 9.7 km/h
180 27-08-2022 14:55:00 18.4 C 13.53 g/m*3 18.4 C 8.1 km/h
181 27-08-2022 15:00:00 18.4 C 13.53 g/m*3 18.4 C 4.8 km/h
182 27-08-2022 15:05:00 18.4 C 13.53 g/m*3 18.4 C 4.8 km/h
183 27-08-2022 15:10:00 18.4 C 13.53 g/m*3 18.4 C 8.1 km/h
184 27-08-2022 15:15:00 18.4 C 13.53 g/m*3 18.4 C 11.3 km/h
185 27-08-2022 15:20:00 18.4 C 13.53 g/m*3 18.4 C 9.7 km/h
186 27-08-2022 15:25:00 18.5 C 13.61 g/m*3 18.5 C 8.1 km/h
187 27-08-2022 15:30:00 18.6 C 13.53 g/m*3 18.6 C 11.3 km/h
188 27-08-2022 15:35:00 18.7 C 13.61 g/m*3 18.7 C 3.2 km/h
189 27-08-2022 15:40:00 18.7 C 13.61 g/m*3 18.7 C 11.3 km/h
190 27-08-2022 15:45:00 18.8 C 13.53 g/m*3 18.8 C 12.9 km/h
191 27-08-2022 15:50:00 18.9 C 13.77 g/m*3 18.9 C 3.2 km/h
192 27-08-2022 15:55:00 19 C 13.85 g/m*3 19 C 6.4 km/h
193 27-08-2022 16:00:00 19.2 C 13.85 g/m*3 19.2 C 1.6 km/h
194 27-08-2022 16:05:00 19.3 C 13.93 g/m*3 19.3 C 8.1 km/h
195 27-08-2022 16:10:00 19.4 C 13.68 g/m*3 19.4 C 6.4 km/h
196 27-08-2022 16:15:00 19.6 C 13.84 g/m*3 19.6 C 4.8 km/h
197 27-08-2022 16:20:00 19.7 C 13.92 g/m*3 19.7 C 6.4 km/h
198 27-08-2022 16:25:00 19.8 C 13.84 g/m*3 19.8 C 3.2 km/h
199 27-08-2022 16:30:00 19.9 C 13.92 g/m*3 19.9 C 4.8 km/h
200 27-08-2022 16:35:00 20.1 C 13.91 g/m*3 20.1 C 8.1 km/h
Sensor: Nr:Datum:Temp:Abs-Feuchte:Windchill:Wind:
Aussen-T/F 201 27-08-2022 16:40:00 20.2 C 13.99 g/m*3 20.2 C 8.1 km/h
202 27-08-2022 16:45:00 20.3 C 13.89 g/m*3 20.3 C 6.4 km/h
203 27-08-2022 16:50:00 20.4 C 13.98 g/m*3 20.4 C 8.1 km/h
204 27-08-2022 16:55:00 20.5 C 13.88 g/m*3 20.5 C 6.4 km/h
205 27-08-2022 17:00:00 20.7 C 14.04 g/m*3 20.7 C 8.1 km/h
206 27-08-2022 17:05:00 20.7 C 13.86 g/m*3 20.7 C 6.4 km/h
207 27-08-2022 17:10:00 20.7 C 13.86 g/m*3 20.7 C 8.1 km/h
208 27-08-2022 17:15:00 20.7 C 13.86 g/m*3 20.7 C 4.8 km/h
209 27-08-2022 17:20:00 20.7 C 13.86 g/m*3 20.7 C 8.1 km/h
210 27-08-2022 17:25:00 20.7 C 13.86 g/m*3 20.7 C 9.7 km/h
211 27-08-2022 17:30:00 20.7 C 13.86 g/m*3 20.7 C 11.3 km/h
212 27-08-2022 17:35:00 20.6 C 13.78 g/m*3 20.6 C 6.4 km/h
213 27-08-2022 17:40:00 20.6 C 13.78 g/m*3 20.6 C 6.4 km/h
214 27-08-2022 17:45:00 20.7 C 13.86 g/m*3 20.7 C 11.3 km/h
215 27-08-2022 17:50:00 20.6 C 13.6 g/m*3 20.6 C 12.9 km/h
216 27-08-2022 17:55:00 20.5 C 13.7 g/m*3 20.5 C 6.4 km/h
217 27-08-2022 18:00:00 20.4 C 13.44 g/m*3 20.4 C 14.5 km/h
218 27-08-2022 18:05:00 20.4 C 13.62 g/m*3 20.4 C 14.5 km/h
219 27-08-2022 18:10:00 20.4 C 13.62 g/m*3 20.4 C 11.3 km/h
220 27-08-2022 18:15:00 20.3 C 13.54 g/m*3 20.3 C 6.4 km/h
221 27-08-2022 18:20:00 20.3 C 13.54 g/m*3 20.3 C 6.4 km/h
222 27-08-2022 18:25:00 20.3 C 13.54 g/m*3 20.3 C 8.1 km/h
223 27-08-2022 18:30:00 20.3 C 13.54 g/m*3 20.3 C 9.7 km/h
224 27-08-2022 18:35:00 20.3 C 13.54 g/m*3 20.3 C 6.4 km/h
225 27-08-2022 18:40:00 20.3 C 13.54 g/m*3 20.3 C 11.3 km/h
Sensor: Nr:Datum:Temp:Abs-Feuchte:Windchill:Wind:
Aussen-T/F 226 27-08-2022 18:45:00 20.2 C 13.46 g/m*3 20.2 C 9.7 km/h
227 27-08-2022 18:50:00 20.2 C 13.46 g/m*3 20.2 C 8.1 km/h
228 27-08-2022 18:55:00 20.1 C 13.39 g/m*3 20.1 C 9.7 km/h
229 27-08-2022 19:00:00 20.1 C 13.39 g/m*3 20.1 C 3.2 km/h
230 27-08-2022 19:05:00 20.1 C 13.39 g/m*3 20.1 C 9.7 km/h
231 27-08-2022 19:10:00 20 C 13.31 g/m*3 20 C 8.1 km/h
232 27-08-2022 19:15:00 20 C 13.31 g/m*3 20 C 3.2 km/h
233 27-08-2022 19:20:00 19.9 C 13.23 g/m*3 19.9 C 12.9 km/h
234 27-08-2022 19:25:00 19.9 C 13.23 g/m*3 19.9 C 6.4 km/h
235 27-08-2022 19:30:00 19.9 C 13.23 g/m*3 19.9 C 6.4 km/h
236 27-08-2022 19:35:00 19.8 C 13.15 g/m*3 19.8 C 9.7 km/h
237 27-08-2022 19:40:00 19.8 C 13.15 g/m*3 19.8 C 3.2 km/h
238 27-08-2022 19:45:00 19.8 C 13.15 g/m*3 19.8 C 9.7 km/h
239 27-08-2022 19:50:00 19.7 C 13.08 g/m*3 19.7 C 6.4 km/h
240 27-08-2022 19:55:00 19.7 C 13.08 g/m*3 19.7 C 11.3 km/h
241 27-08-2022 20:00:00 19.6 C 13.17 g/m*3 19.6 C 1.6 km/h
242 27-08-2022 20:05:00 19.5 C 13.09 g/m*3 19.5 C 8.1 km/h
243 27-08-2022 20:10:00 19.4 C 13.01 g/m*3 19.4 C 4.8 km/h
244 27-08-2022 20:15:00 19.3 C 12.94 g/m*3 19.3 C 3.2 km/h
245 27-08-2022 20:20:00 19.2 C 12.86 g/m*3 19.2 C 0 km/h
246 27-08-2022 20:25:00 19.1 C 12.95 g/m*3 19.1 C 0 km/h
247 27-08-2022 20:30:00 18.9 C 12.8 g/m*3 18.9 C 0 km/h
248 27-08-2022 20:35:00 18.7 C 12.65 g/m*3 18.7 C 3.2 km/h
249 27-08-2022 20:40:00 18.5 C 12.66 g/m*3 18.5 C 0 km/h
250 27-08-2022 20:45:00 18.3 C 12.51 g/m*3 18.3 C 0 km/h
Sensor: Nr:Datum:Temp:Abs-Feuchte:Windchill:Wind:
Aussen-T/F 251 27-08-2022 20:50:00 18.1 C 12.52 g/m*3 18.1 C 0 km/h
252 27-08-2022 20:55:00 17.9 C 12.52 g/m*3 17.9 C 0 km/h
253 27-08-2022 21:00:00 17.8 C 12.45 g/m*3 17.8 C 0 km/h
254 27-08-2022 21:05:00 17.6 C 12.45 g/m*3 17.6 C 0 km/h
255 27-08-2022 21:10:00 17.4 C 12.3 g/m*3 17.4 C 0 km/h
256 27-08-2022 21:15:00 17.3 C 12.23 g/m*3 17.3 C 1.6 km/h
257 27-08-2022 21:20:00 17.2 C 12.3 g/m*3 17.2 C 1.6 km/h
258 27-08-2022 21:25:00 17.2 C 12.3 g/m*3 17.2 C 0 km/h
259 27-08-2022 21:30:00 17.1 C 12.23 g/m*3 17.1 C 1.6 km/h
260 27-08-2022 21:35:00 17.1 C 12.37 g/m*3 17.1 C 4.8 km/h
261 27-08-2022 21:40:00 17.1 C 12.37 g/m*3 17.1 C 1.6 km/h
262 27-08-2022 21:45:00 17.2 C 12.3 g/m*3 17.2 C 3.2 km/h
263 27-08-2022 21:50:00 17.2 C 12.3 g/m*3 17.2 C 0 km/h
264 27-08-2022 21:55:00 17.3 C 12.37 g/m*3 17.3 C 1.6 km/h
265 27-08-2022 22:00:00 17.3 C 12.37 g/m*3 17.3 C 1.6 km/h
266 27-08-2022 22:05:00 17.3 C 12.37 g/m*3 17.3 C 0 km/h
267 27-08-2022 22:10:00 17.4 C 12.45 g/m*3 17.4 C 0 km/h
268 27-08-2022 22:15:00 17.4 C 12.3 g/m*3 17.4 C 3.2 km/h
269 27-08-2022 22:20:00 17.4 C 12.3 g/m*3 17.4 C 1.6 km/h
270 27-08-2022 22:25:00 17.4 C 12.3 g/m*3 17.4 C 1.6 km/h
271 27-08-2022 22:30:00 17.5 C 12.37 g/m*3 17.5 C 1.6 km/h
272 27-08-2022 22:35:00 17.5 C 12.37 g/m*3 17.5 C 1.6 km/h
273 27-08-2022 22:40:00 17.5 C 12.37 g/m*3 17.5 C 3.2 km/h
274 27-08-2022 22:45:00 17.6 C 12.45 g/m*3 17.6 C 0 km/h
275 27-08-2022 22:50:00 17.6 C 12.45 g/m*3 17.6 C 0 km/h
Sensor: Nr:Datum:Temp:Abs-Feuchte:Windchill:Wind:
Aussen-T/F 276 27-08-2022 22:55:00 17.7 C 12.52 g/m*3 17.7 C 1.6 km/h
277 27-08-2022 23:00:00 17.8 C 12.45 g/m*3 17.8 C 1.6 km/h
278 27-08-2022 23:05:00 17.8 C 12.45 g/m*3 17.8 C 0 km/h
279 27-08-2022 23:10:00 17.9 C 12.52 g/m*3 17.9 C 0 km/h
280 27-08-2022 23:15:00 17.9 C 12.52 g/m*3 17.9 C 0 km/h
281 27-08-2022 23:20:00 18 C 12.44 g/m*3 18 C 4.8 km/h
282 27-08-2022 23:25:00 18.1 C 12.52 g/m*3 18.1 C 0 km/h
283 27-08-2022 23:30:00 18.1 C 12.52 g/m*3 18.1 C 0 km/h
284 27-08-2022 23:35:00 18.2 C 12.59 g/m*3 18.2 C 0 km/h
285 27-08-2022 23:40:00 18.2 C 12.59 g/m*3 18.2 C 0 km/h
286 27-08-2022 23:45:00 18.2 C 12.59 g/m*3 18.2 C 0 km/h
287 27-08-2022 23:50:00 18.2 C 12.59 g/m*3 18.2 C 0 km/h
288 27-08-2022 23:55:00 18.1 C 12.52 g/m*3 18.1 C 0 km/h

Legende:
   Min
   Max


Maximal/Minimal-Werte vom 27.08.2022 - 27.08.2022

Sensor Min Max Avg
Temp
(Aussen-T/F)
17.1 °C
27-08-2022  21:30:00
20.7 °C
27-08-2022  17:00:00
18.9 °C
Abs-Feuchte
(Aussen-T/F)
12.23 g/m*3
27-08-2022  21:15:00
14.43 g/m*3
27-08-2022  00:35:00
13.57 g/m*3
Windchill
(Aussen-T/F)
17.1 C
27-08-2022  21:30:00
20.7 C
27-08-2022  17:00:00
18.84 C

Die Daten stammen von einer Davis Vantage Pro 2 Wetter-Station und werden unter Linux mit der Software wview2wettercgi und aufbereitet. Alle Angaben erfolgen ohne Gewähr für ihre Vollständigkeit oder Richtigkeit.
Kontakt: Rainer Krienke krienke@uni-koblenz.de . Meine Webseiten an der Uni Koblenz oder privat.
Version: $Revision: 0.78 $